Location: La Trinit�
(48.1620°N, 3.4512°W)
Time: 16:20:31
(UTC+00:00)

FALCON 9 DEB - Pass Details

Date: 08 May 2021
Orbit: 368 x 382 km, 53.0° (Epoch: 15 June)

Event Time Altitude Azimuth Distance (km) Brightness Sun altitude
Rises 20:29:58 0° 292° (WNW) 2,220 8.5 -8.2°
Maximum altitude 20:34:49 27° 219° (SW) 744 4.3 -8.8°
Enters shadow 20:37:23 11° 159° (SSE) 1,330 5.1 -9.2°
